Weather History for Tracy, MN

Change the Weather History Date:

Saturday, November 24, 2012

  Actual Average (KMML) Record (KMML)
Temperature  
Mean Temperature 22 °F -  
Max Temperature 36 °F 37 °F 65 °F (1984)
Min Temperature 9 °F 17 °F -10 °F (1985)
Degree Days  
Heating Degree Days 42    
Moisture  
Dew Point 14 °F    
Average Humidity 65    
Maximum Humidity 88    
Minimum Humidity 45    
Precipitation  
Precipitation 0.00 in - - ()
Sea Level Pressure  
Sea Level Pressure 30.02 in    
Wind  
Wind Speed 4 mph (SSW)    
Max Wind Speed 20 mph    
Max Gust Speed 26 mph    
Visibility 10 miles    
Events      
Averages and records for this station are not official NWS values.
T = Trace of Precipitation, MM = Missing Value Source: NWS Daily Summary

Daily Weather History Graph

Daily Weather History Graph

Search for Another Location

Airport:

Trip Planner

Search our weather history database for the weather conditions in past years. The results will help you decide how hot, cold, wet, or windy it might be!

Date:

Astronomy

Nov. 24, 2012 Rise Set
Actual Time 7:30 AM CST 4:47 PM CST
Civil Twilight 6:58 AM CST 5:20 PM CST
Nautical Twilight 6:22 AM CST 5:55 PM CST
Astronomical Twilight 5:47 AM CST 6:30 PM CST
Moon 2:38 PM CST (11/24) 3:41 AM CST (11/24)
Length of Visible Light 10h 21m
Length of Day
9h 17m
Waxing Gibbous, 87% of the Moon is Illuminated
Nov 24
Waxing Gibbous
Nov 28
Full
Dec 6
Last Quarter
Dec 13
New
Dec 19
First Quarter

Hourly Weather History & Observations

Time (CST) Temp. Windchill Dew Point Humidity Pressure Visibility Wind Dir Wind Speed Gust Speed Precip Events Conditions
12:15 AM 9.3 °F - 6.4 °F 88% 30.35 in 10.0 mi Calm Calm - N/A   Clear
12:35 AM 9.7 °F - 6.3 °F 86% 30.35 in 10.0 mi Calm Calm - N/A   Clear
12:55 AM 10.2 °F - 7.0 °F 87% 30.34 in 10.0 mi Calm Calm - N/A   Clear
1:15 AM 9.5 °F - 5.7 °F 85% 30.33 in 10.0 mi Calm Calm - N/A   Clear
1:34 AM 9.5 °F - 6.4 °F 87% 30.32 in 10.0 mi Calm Calm - N/A   Clear
2:15 AM 9.5 °F - 6.3 °F 87% 30.32 in 10.0 mi Calm Calm - N/A   Clear
2:34 AM 10.0 °F - 6.8 °F 87% 30.32 in 10.0 mi Calm Calm - N/A   Clear
2:55 AM 10.9 °F - 7.5 °F 86% 30.30 in 10.0 mi Calm Calm - N/A   Scattered Clouds
3:15 AM 11.5 °F - 7.9 °F 85% 30.28 in 10.0 mi Calm Calm - N/A   Clear
3:35 AM 11.8 °F - 8.2 °F 85% 30.28 in 10.0 mi Calm Calm - N/A   Clear
3:55 AM 12.0 °F - 8.4 °F 85% 30.27 in 10.0 mi Calm Calm - N/A   Clear
4:15 AM 12.2 °F - 8.6 °F 85% 30.26 in 10.0 mi Calm Calm - N/A   Clear
4:34 AM 12.2 °F - 8.6 °F 85% 30.26 in 10.0 mi Calm Calm - N/A   Clear
4:55 AM 12.7 °F - 8.6 °F 84% 30.26 in 10.0 mi Calm Calm - N/A   Mostly Cloudy
5:15 AM 13.3 °F - 8.6 °F 82% 30.25 in 10.0 mi Calm Calm - N/A   Overcast
5:34 AM 13.8 °F - 9.1 °F 82% 30.25 in 10.0 mi Calm Calm - N/A   Overcast
6:15 AM 14.4 °F - 9.5 °F 81% 30.22 in 10.0 mi Calm Calm - N/A   Overcast
6:35 AM 14.7 °F - 9.5 °F 80% 30.21 in 10.0 mi Calm Calm - N/A   Overcast
6:55 AM 15.1 °F - 10.2 °F 81% 30.20 in 10.0 mi Calm Calm - N/A   Overcast
7:14 AM 15.6 °F - 10.6 °F 80% 30.20 in 10.0 mi Calm Calm - N/A   Overcast
7:35 AM 15.8 °F - 10.9 °F 81% 30.19 in 10.0 mi Calm Calm - N/A   Overcast
7:55 AM 15.8 °F - 11.1 °F 82% 30.17 in 10.0 mi Calm Calm - N/A   Overcast
8:14 AM 16.5 °F 8.1 °F 11.7 °F 81% 30.19 in 10.0 mi South 5.8 mph - N/A   Overcast
8:35 AM 17.1 °F - 11.8 °F 80% 30.17 in 10.0 mi Calm Calm - N/A   Mostly Cloudy
8:55 AM 17.4 °F - 11.7 °F 78% 30.15 in 10.0 mi Calm Calm - N/A   Mostly Cloudy
9:15 AM 18.1 °F - 12.0 °F 77% 30.14 in 10.0 mi Calm Calm - N/A   Overcast
9:35 AM 18.9 °F - 12.2 °F 75% 30.14 in 10.0 mi Calm Calm - N/A   Mostly Cloudy
9:54 AM 19.8 °F - 12.6 °F 74% 30.13 in 10.0 mi Calm Calm - N/A   Overcast
10:15 AM 20.8 °F - 13.1 °F 72% 30.12 in 10.0 mi Calm Calm - N/A   Overcast
10:35 AM 21.7 °F 9.0 °F 13.6 °F 71% 30.09 in 10.0 mi SSE 13.8 mph - N/A   Overcast
10:55 AM 23.5 °F 9.9 °F 14.2 °F 67% 30.07 in 10.0 mi South 17.3 mph 21.9 mph N/A   Overcast
11:15 AM 24.6 °F 12.2 °F 14.0 °F 64% 30.05 in 10.0 mi South 15.0 mph - N/A   Overcast
11:34 AM 26.1 °F 13.1 °F 14.5 °F 62% 30.03 in 10.0 mi South 17.3 mph - N/A   Overcast
11:55 AM 28.4 °F 17.0 °F 15.1 °F 57% 30.01 in 10.0 mi South 15.0 mph 20.7 mph N/A   Mostly Cloudy
12:15 PM 29.7 °F 18.6 °F 14.9 °F 54% 29.98 in 10.0 mi SSE 15.0 mph 21.9 mph N/A   Scattered Clouds
12:35 PM 31.5 °F 21.4 °F 15.1 °F 51% 29.96 in 10.0 mi South 13.8 mph 20.7 mph N/A   Scattered Clouds
12:55 PM 32.0 °F 20.1 °F 15.3 °F 50% 29.92 in 10.0 mi South 19.6 mph 26.5 mph N/A   Clear
1:14 PM 32.7 °F 21.1 °F 15.1 °F 48% 29.90 in 10.0 mi South 19.6 mph 26.5 mph N/A   Mostly Cloudy
1:35 PM 33.1 °F 23.0 °F 15.4 °F 48% 29.89 in 10.0 mi South 15.0 mph 26.5 mph N/A   Scattered Clouds
1:55 PM 33.8 °F 23.5 °F 15.3 °F 47% 29.89 in 10.0 mi South 16.1 mph 20.7 mph N/A   Clear
2:14 PM 33.4 °F 23.1 °F 15.3 °F 47% 29.88 in 10.0 mi South 16.1 mph 23.0 mph N/A   Clear
2:35 PM 34.0 °F 24.2 °F 15.8 °F 47% 29.87 in 10.0 mi South 15.0 mph 19.6 mph N/A   Clear
2:55 PM 34.7 °F 25.1 °F 16.3 °F 47% 29.86 in 10.0 mi South 15.0 mph 21.9 mph N/A   Scattered Clouds
3:15 PM 34.7 °F 26.9 °F 16.7 °F 48% 29.85 in 10.0 mi South 10.4 mph 20.7 mph N/A   Mostly Cloudy
3:35 PM 35.1 °F 27.4 °F 16.9 °F 48% 29.84 in 10.0 mi SSW 10.4 mph - N/A   Scattered Clouds
3:55 PM 36.1 °F 28.2 °F 16.7 °F 45% 29.84 in 10.0 mi SSW 11.5 mph 19.6 mph N/A   Mostly Cloudy
4:14 PM 35.8 °F 26.1 °F 16.5 °F 46% 29.84 in 10.0 mi SSW 16.1 mph 21.9 mph N/A   Mostly Cloudy
4:35 PM 35.2 °F 27.6 °F 16.3 °F 46% 29.83 in 10.0 mi SSW 10.4 mph - N/A   Scattered Clouds
4:55 PM 34.7 °F 25.9 °F 15.8 °F 46% 29.83 in 10.0 mi SSW 12.7 mph 18.4 mph N/A   Clear
5:15 PM 33.4 °F 25.9 °F 16.5 °F 50% 29.82 in 10.0 mi SSW 9.2 mph - N/A   Clear
5:35 PM 32.2 °F 25.0 °F 16.5 °F 53% 29.82 in 10.0 mi SSW 8.1 mph - N/A   Clear
5:55 PM 33.1 °F 24.4 °F 16.2 °F 50% 29.81 in 10.0 mi SSW 11.5 mph - N/A   Clear
6:14 PM 33.1 °F 24.4 °F 16.0 °F 50% 29.81 in 10.0 mi SW 11.5 mph - N/A   Clear
6:35 PM 32.9 °F 26.7 °F 16.5 °F 51% 29.83 in 10.0 mi SW 6.9 mph - N/A   Clear
6:55 PM 32.2 °F - 16.3 °F 52% 29.82 in 10.0 mi Calm Calm - N/A   Clear
7:15 PM 32.4 °F - 16.5 °F 52% 29.82 in 10.0 mi Calm Calm - N/A   Scattered Clouds
7:35 PM 32.5 °F - 16.7 °F 52% 29.81 in 10.0 mi Calm Calm - N/A   Overcast
7:55 PM 32.4 °F 25.3 °F 17.2 °F 54% 29.81 in 10.0 mi SW 8.1 mph - N/A   Overcast
8:15 PM 33.1 °F 25.5 °F 17.4 °F 53% 29.80 in 10.0 mi SW 9.2 mph - N/A   Overcast
8:35 PM 33.1 °F 25.5 °F 17.8 °F 53% 29.79 in 10.0 mi SW 9.2 mph - N/A   Overcast
8:54 PM 32.9 °F 24.7 °F 18.0 °F 54% 29.80 in 10.0 mi SW 10.4 mph - N/A   Scattered Clouds
9:15 PM 34.2 °F - 18.3 °F 52% 29.79 in 10.0 mi Calm Calm - N/A   Scattered Clouds
9:35 PM 34.7 °F 28.8 °F 18.9 °F 52% 29.80 in 10.0 mi West 6.9 mph - N/A   Scattered Clouds
9:55 PM 33.8 °F - 19.0 °F 55% 29.81 in 10.0 mi Calm Calm - N/A   Clear
10:15 PM 33.8 °F 26.4 °F 19.4 °F 56% 29.82 in 10.0 mi WNW 9.2 mph - N/A   Scattered Clouds
10:34 PM 34.0 °F 26.6 °F 19.9 °F 56% 29.81 in 10.0 mi WNW 9.2 mph - N/A   Mostly Cloudy
10:55 PM 34.3 °F - 21.0 °F 58% 29.82 in 10.0 mi Calm Calm - N/A   Mostly Cloudy
11:15 PM 32.4 °F - 20.5 °F 62% 29.82 in 10.0 mi Calm Calm - N/A   Scattered Clouds
11:35 PM 30.7 °F - 20.1 °F 65% 29.82 in 10.0 mi Calm Calm - N/A   Clear
11:54 PM 31.5 °F - 20.8 °F 65% 29.83 in 10.0 mi Calm Calm - N/A   Clear